This is the latest recevied weather packets stored in our database for station/object KE3HG-2. If no packets are shown the sender has not sent any weather packets the latest 10 day(s).
| Time | Temp. | Humidity | Pressure | Rain* | Wind** | Luminosity | Snow |
|---|---|---|---|---|---|---|---|
| 1777735819 | 12.78° C | 38% | 757.5 hPa | 0 mm | - | - | - |
| 1777734812 | 12.22° C | 41% | 757.5 hPa | 0 mm | - | - | - |
| 1777734214 | 12.22° C | 40% | 757.5 hPa | 0 mm | - | - | - |
| 1777733612 | 11.67° C | 46% | 757.5 hPa | 0 mm | - | - | - |
| 1777732601 | 11.11° C | 49% | 757.5 hPa | 0 mm | - | - | - |
| 1777732001 | 10.56° C | 47% | 757.5 hPa | 0 mm | - | - | - |
| 1777731401 | 10.56° C | 47% | 757.5 hPa | 0 mm | - | - | - |
| 1777730409 | 10.56° C | 47% | 757.5 hPa | 0 mm | - | - | - |
| 1777729809 | 10.56° C | 47% | 757.5 hPa | 0 mm | - | - | - |
| 1777729209 | 10° C | 49% | 757.5 hPa | 0 mm | - | - | - |
| 1777728198 | 10° C | 51% | 757.5 hPa | 0 mm | - | - | - |
| 1777727598 | 9.44° C | 54% | 757.5 hPa | 0 mm | - | - | - |
| 1777726998 | 9.44° C | 54% | 757.5 hPa | 0 mm | - | - | - |
| 1777726005 | 9.44° C | 55% | 757.5 hPa | 0 mm | - | - | - |
| 1777725405 | 9.44° C | 55% | 757.5 hPa | 0 mm | - | - | - |
| 1777724805 | 9.44° C | 56% | 757.5 hPa | 0 mm | - | - | - |
| 1777723813 | 9.44° C | 56% | 757.5 hPa | 0 mm | - | - | - |
| 1777723214 | 9.44° C | 57% | 757.5 hPa | 0 mm | - | - | - |
| 1777722614 | 8.89° C | 58% | 757.5 hPa | 0 mm | - | - | - |
| 1777721623 | 8.89° C | 59% | 757.5 hPa | 0 mm | - | - | - |
| 1777721023 | 8.89° C | 59% | 757.5 hPa | 0 mm | - | - | - |
| 1777720423 | 8.89° C | 59% | 757.5 hPa | 0 mm | - | - | - |
| 1777719432 | 8.89° C | 60% | 757.5 hPa | 0 mm | - | - | - |
| 1777718832 | 9.44° C | 61% | 757.5 hPa | 0 mm | - | - | - |
| 1777718232 | 9.44° C | 61% | 757.5 hPa | 0 mm | - | - | - |
* Rain latest hour (hover to see other rain measurements)
** Current wind speed in m/s (hover to see current wind gust speed)